Change the Weather History Date:

Wednesday, September 14, 2011

  Actual Average Record
Temperature  
Mean Temperature 71 °F 83 °F  
Max Temperature 77 °F 95 °F 107 °F (1945)
Min Temperature 64 °F 72 °F 50 °F (1941)
Degree Days  
Heating Degree Days 0 0  
Month to date heating degree days 0 0  
Since 1 July heating degree days 0 0  
Cooling Degree Days 6 18  
Month to date cooling degree days 272 290  
Year to date cooling degree days 3024 3139  
Growing Degree Days 20 (Base 50)    
Moisture  
Dew Point 58 °F    
Average Humidity 70    
Maximum Humidity 87    
Minimum Humidity 53    
Precipitation  
Precipitation 0.25 in 0.01 in 0.25 in (2011)
Month to date precipitation 0.76 0.14  
Year to date precipitation 1.86 2.95  
Snow  
Snow 0.00 in 0.00 in 0.00 in ()
Month to date snowfall 0.0 0.0  
Since 1 July snowfall 0.0 0.0  
Since 1 September snowfall 0.0 0.0  
Snow Depth 0.00 in    
Sea Level Pressure  
Sea Level Pressure 29.90 in    
Wind  
Wind Speed 7 mph (SSW)    
Max Wind Speed 23 mph    
Max Gust Speed 29 mph    
Visibility 9 miles    
Events Fog , Rain , Thunderstorm    
T = Trace of Precipitation, MM = Missing Value Source: NWS Daily Summary

Daily Weather History Graph

Daily Weather History Graph

Search for Another Location

Airport or City:

Trip Planner

Search our weather history database for the weather conditions in past years. The results will help you decide how hot, cold, wet, or windy it might be!

Date:

Astronomy

Sep. 14, 2011 Rise Set
Actual Time 6:22 AM PDT 6:49 PM PDT
Civil Twilight 5:56 AM PDT 7:15 PM PDT
Nautical Twilight 5:26 AM PDT 7:45 PM PDT
Astronomical Twilight 4:55 AM PDT 8:16 PM PDT
Moon 7:43 PM PDT (9/14) 8:30 AM PDT (9/14)
Length of Visible Light 13h 18m
Length of Day
12h 27m
Waning Gibbous, 95% of the Moon is Illuminated
Sep 14
Waning Gibbous
Sep 20
Last Quarter
Sep 27
New
Oct 3
First Quarter
Oct 11
Full

Hourly Weather History & Observations

Time (PDT) Temp. Dew Point Humidity Pressure Visibility Wind Dir Wind Speed Gust Speed Precip Events Conditions
12:56 AM 70.0 °F 59.0 °F 68% 29.92 in 10.0 mi South 8.1 mph - N/A   Overcast
1:56 AM 69.1 °F 57.9 °F 68% 29.92 in 10.0 mi SSE 4.6 mph - N/A   Overcast
2:56 AM 69.1 °F 57.9 °F 68% 29.91 in 9.0 mi Calm Calm - 0.00 in   Overcast
3:29 AM 66.2 °F 59.0 °F 78% 29.97 in 4.0 mi South 8.1 mph - 0.02 in Rain Light Rain
3:45 AM 64.4 °F 60.8 °F 88% 29.97 in 5.0 mi SSW 9.2 mph - 0.08 in Fog , Rain Heavy Rain
3:56 AM 64.9 °F 61.0 °F 87% 29.92 in 6.0 mi SSW 10.4 mph - 0.16 in Rain Rain
4:56 AM 64.0 °F 59.0 °F 84% 29.91 in 10.0 mi SSW 15.0 mph - 0.02 in   Overcast
5:56 AM 64.0 °F 59.0 °F 84% 29.92 in 10.0 mi SSW 9.2 mph - 0.00 in Rain Light Rain
6:56 AM 64.9 °F 60.1 °F 84% 29.92 in 10.0 mi SSW 8.1 mph - 0.01 in Rain Light Rain
7:56 AM 64.0 °F 60.1 °F 87% 29.93 in 9.0 mi West 3.5 mph - 0.03 in Rain Light Rain
8:56 AM 64.9 °F 59.0 °F 81% 29.93 in 10.0 mi SSW 5.8 mph - 0.00 in Rain Light Rain
9:56 AM 66.0 °F 60.1 °F 81% 29.93 in 10.0 mi SW 8.1 mph - 0.01 in   Mostly Cloudy
10:56 AM 69.8 °F 60.8 °F 73% 29.93 in 10.0 mi WSW 6.9 mph - N/A   Mostly Cloudy
11:16 AM 71.6 °F 60.8 °F 69% 29.97 in 10.0 mi SSW 10.4 mph - N/A   Mostly Cloudy
11:56 AM 73.0 °F 57.9 °F 59% 29.91 in 10.0 mi Calm Calm - N/A   Mostly Cloudy
12:56 PM 75.0 °F 57.9 °F 55% 29.88 in 10.0 mi Calm Calm - N/A   Mostly Cloudy
1:56 PM 73.9 °F 57.9 °F 57% 29.86 in 10.0 mi Calm Calm - N/A   Mostly Cloudy
2:33 PM 69.8 °F 57.2 °F 64% 29.91 in 10.0 mi West 16.1 mph - N/A Thunderstorm Thunderstorm
2:56 PM 66.9 °F 60.1 °F 79% 29.86 in 9.0 mi WSW 12.7 mph - 0.00 in Rain , Thunderstorm Light Thunderstorms and Rain
3:05 PM 68.0 °F 59.0 °F 73% 29.90 in 10.0 mi SW 11.5 mph - 0.02 in Rain Rain
3:56 PM 71.6 °F 57.2 °F 60% 29.88 in 10.0 mi SW 10.4 mph - N/A   Mostly Cloudy
4:56 PM 73.9 °F 55.0 °F 52% 29.83 in 10.0 mi SSW 11.5 mph - N/A   Mostly Cloudy
5:56 PM 73.0 °F 55.9 °F 55% 29.83 in 10.0 mi SSW 10.4 mph - N/A   Mostly Cloudy
6:56 PM 73.0 °F 57.0 °F 57% 29.83 in 10.0 mi SSW 8.1 mph - N/A   Mostly Cloudy
7:56 PM 72.0 °F 57.0 °F 59% 29.84 in 10.0 mi SSW 8.1 mph - N/A   Mostly Cloudy
8:56 PM 71.6 °F 57.2 °F 60% 29.89 in 10.0 mi SSW 8.1 mph - N/A   Mostly Cloudy
9:56 PM 70.0 °F 57.0 °F 63% 29.84 in 10.0 mi SSW 8.1 mph - N/A   Mostly Cloudy
10:56 PM 69.1 °F 57.0 °F 65% 29.84 in 10.0 mi South 4.6 mph - N/A   Scattered Clouds
11:56 PM 68.0 °F 57.0 °F 68% 29.85 in 10.0 mi SSW 8.1 mph - N/A   Scattered Clouds